Tracking 30102 objects as of 13-Dec-2024
HD Live streaming from Space Station
objects crossing your sky now

STARLINK-31866

Track STARLINK-31866 now!
10-day predictions
STARLINK-31866 is classified as:


NORAD ID: 59668
Int'l Code: 2024-084Q
Perigee: 451.1 km
Apogee: 451.3 km
Inclination: 43.0 °
Period: 93.5 minutes
Semi major axis: 6822 km
RCS: Unknown
Launch date: May 6, 2024
Source: United States (US)
Launch site: AIR FORCE EASTERN TEST RANGE (AFETR)
Your satellite tracking list
Your tracking list is empty




NASA's NSSDC Master Catalog

Two Line Element Set (TLE):
1 59668U 24084Q   24347.64135157  .00000637  00000-0  22502-4 0  9995
2 59668  42.9969  81.1785 0000168  15.1296 344.9565 15.40689983 35203
Source of the keplerian elements: AFSPC